CZ-2D DEB, 44605

Orbit data source: Space-Track

CZ-2D DEB, 44605 is space debris in SSO originally from a launch on Fri, 11 Nov 2016 UTC launched from the Jiuquan Satellite Launch Center, China (JSC). Debris objects in space refer to the collection of defunct objects orbiting the Earth. Examples of debris include non-operational satellites, rocket bodies, and fragments generated from explosions, collisions, or faulty payload assembly.

Loading next visibility...
Identifier
44605, 2016-068E
Orbit
SSO
Country
Flag of CNCN / PRC
Related business
Manufacturer
Unknown
Mission
Spacecraft
Bus & Motor
Unknown
Mass
Unknown
Launch date (UTC)
2016-11-11 (9 years ago)
Launch vehicle
Unknown
Launch site
Jiuquan Satellite Launch Center, China (JSC)
Object type
Payload
Rocket body
Debris
Shape & HBR
Unknown shape, 0.1 m
Radar Cross Section
Small (<0.1 m²)

Expand to show TLE details & history
Last TLE update: 23 hours ago

TLE from 23 hours ago
0 CZ-2D DEB
1 44605U 16068E   25292.99724785  .00001188  00000-0  82116-3 0  9990
2 44605  98.4435  13.3248 0229300 198.5209 160.7503 13.88944194447801
Epoch: 2025-10-19T23:56Z
TLE epoch observation values (Epoch: 2025-10-19T23:56:02.214Z)
Latitude
-0.00001°
Longitude
-14.39031°
Altitude
1,093.907 km
Speed
7.226 km/s
True Right ascension
00h 53m 17s
True Declination
0° 00' 00"
Sunlit
Object was in full shadow at epoch
Visualization orbit readout
Latitude
Unknown
Longitude
Unknown
Altitude
Unknown
Speed
Unknown
Apparent Right ascension
Unknown
Apparent Declination
Unknown
Sunlit
N/A
Visualization observer readout
Local Sidereal Time
18:18:25
Azimuth
Unknown
Elevation
Unknown
Doppler factor
Unknown
Orbital elements
Apogee altitude
1,097.083 km
Perigee altitude
761.954 km
Semi-major axis
7,307.656 km
Eccentricity
0.02293
Inclination
98.4435°
RAAN
13.3248°
Arg. of periapsis
198.5209°
True anomaly
161.5937°
Mean anomaly
160.7503°
Eccentric anomaly
161.17425°
Mean motion
3.47437 °/min
Orbital period
103.62 mins
BSTAR
0.00082116
Loading maneuver chart data...
Computing Atmospheric mass density...
Loading historical data...
Loading historical data...
Loading historical data...
Loading historical data...
Loading historical data...
Loading historical data...
Loading historical data...

Documentation

Showing up to 5 results
|